Regional Weather Roundup
Issued by NWS Glasgow, MT

Home | Current Version | Previous Version | Text Only | Print | Product List | Glossary On
Versions: 1 2 3 4 5 6 7 8 9 10 11 12 13 14 15 16 17 18 19 20 21 22 23 24 25 26 27 28 29 30 31 32 33 34 35 36 37 38 39 40 41 42 43 44 45 46 47 48 49 50
000
ASUS45 KGGW 060315
RWRGGW
HOURLY WEATHER ROUNDUP FOR NORTHEAST MONTANA
NATIONAL WEATHER SERVICE GLASGOW MONTANA
800 PM MST THU MAR 05 2015

NOTE: "FAIR" INDICATES FEW OR NO CLOUDS BELOW 12,000 FEET WITH NO
SIGNIFICANT WEATHER AND/OR OBSTRUCTIONS TO VISISBILITY.

NORTHEAST MONTANA


CITY           SKY/WX    TMP DP  RH WIND       PRES   REMARKS
GLASGOW        PTCLDY    37  18  46 NW3       30.05R
PLENTYWOOD       N/A     32  22  66 NW10G20     N/A
WOLF POINT     MOCLDY    37  21  52 W5        30.05R
JORDAN           N/A     29  21  72 W7        30.07S
WINNETT          N/A     39  21  48 SW3         N/A
SIDNEY         CLOUDY    36  18  48 SW7       30.05F
GLENDIVE       MOCLDY    27  14  59 SW7       30.06F
MALTA            N/A     36  21  54 W5          N/A
SCOBEY           N/A     33  16  49 W5        30.00S

FORT PECK REPORTS


CITY           SKY/WX    TMP DP  RH WIND       PRES   REMARKS
FORT PECK        N/A     39  22  50 W7          N/A
THE PINES        N/A     42  16  34 W5          N/A

SOUTHEAST MONTANA


CITY           SKY/WX    TMP DP  RH WIND       PRES   REMARKS
BILLINGS       CLOUDY    41  16  36 SW18      30.14R
MILES CITY     MOCLDY    33  14  45 MISG      30.09S
BAKER          MOCLDY    30  16  56 W5        30.07F
LIVINGSTON     CLOUDY    44  13  28 W16G24    30.18R

CENTRAL MONTANA


CITY           SKY/WX    TMP DP  RH WIND       PRES   REMARKS
HAVRE          MOCLDY    32  18  56 W5        30.08R
LEWISTOWN      CLEAR     37  23  56 W8        30.11R
GREAT FALLS    PTCLDY    37  14  38 W12       30.11R
CUT BANK       MOCLDY    38  14  37 W26G36    30.07S
HELENA         CLOUDY    38  15  39 W6        30.20R
BUTTE          MOCLDY    37  12  35 W7        30.24R
BOZEMAN        CLOUDY    36  20  52 CALM      30.23R

WESTERN MONTANA


CITY           SKY/WX    TMP DP  RH WIND       PRES   REMARKS
MISSOULA       CLEAR     34  17  50 N6        30.29R
KALISPELL      NOT AVBL

NORTH DAKOTA


CITY           SKY/WX    TMP DP  RH WIND       PRES   REMARKS
WILLISTON      CLOUDY    34  21  59 W8        30.02S
DICKINSON      PTCLDY    23  11  60 W7        30.02F
MINOT          PTCLDY    27  13  55 SW17      29.96S
BISMARCK       CLEAR     25  13  60 SW3       30.06S

SOUTHERN SASKATCHEWAN


CITY           SKY/WX    TMP DP  RH WIND       PRES   REMARKS
REGINA         CLEAR     14  12  92 NW12      29.99R
ESTEVAN        CLEAR     25  18  74 W15       29.97S
SWIFT CURRENT  PTCLDY    27  19  74 W8        30.02R




USA.gov is the U.S. government's official web portal to all federal, state and local government web resources and services.